SAS931 EKCH-KLAX

Flight info

Callsign SAS931
Flight time N/A
Altitude 36000
Route GOLGA DCT RETKA DCT ISVIG/M085F380 DCT 68N010W 71N020W 73N040W 73N060W DCT MEDPA/N0491F380 DCT 70N081W/N0491F400 65N094W 60N101W 55N105W DCT ITREK DCT LWT DCT TCH DCT DTA DCT BLD DCT OTOOL DCT BCALL DCT LEMMN DCT ANJLL ANJLL4
Aircraft A359/H-SDE2E3GHIJ3J4J5LM1ORWXY/LB1D1

Departure

Time 2026-05-03 20:15
Airport Copenhagen Kastrup Airport (EKCH)

Arrival

Time N/A
Airport Los Angeles International Airport (KLAX)
Time Latitude Longitude Altitude Speed Heading
2026-05-03 20:15 55.63670 12.29905 7907 ft 299 kts 351°
2026-05-03 20:15 55.65752 12.29582 8597 ft 302 kts 350°
2026-05-03 20:15 55.67850 12.29236 9301 ft 305 kts 350°
2026-05-03 20:15 55.69971 12.28866 9998 ft 308 kts 349°
2026-05-03 20:16 55.72148 12.28469 10357 ft 323 kts 349°
2026-05-03 20:16 55.74444 12.28039 10637 ft 340 kts 349°
2026-05-03 20:16 55.76850 12.27517 10925 ft 355 kts 345°
2026-05-03 20:16 55.78451 12.26632 11089 ft 359 kts 330°
2026-05-03 20:17 55.81315 12.23786 11580 ft 370 kts 324°
2026-05-03 20:17 55.83528 12.21390 12138 ft 375 kts 323°
2026-05-03 20:17 55.85774 12.18964 12733 ft 380 kts 323°
2026-05-03 20:17 55.88046 12.16521 13369 ft 383 kts 323°
2026-05-03 20:18 55.90301 12.14097 13918 ft 386 kts 324°
2026-05-03 20:18 55.92612 12.11615 14488 ft 389 kts 324°
2026-05-03 20:18 55.94938 12.09116 15043 ft 392 kts 324°
2026-05-03 20:18 55.97281 12.06595 15592 ft 394 kts 324°
2026-05-03 20:19 55.99636 12.04058 16166 ft 397 kts 324°
2026-05-03 20:19 56.01993 12.01515 16726 ft 399 kts 324°
2026-05-03 20:19 56.03574 11.99808 17072 ft 401 kts 324°
2026-05-03 20:19 56.06805 11.96432 17786 ft 407 kts 324°
2026-05-03 20:20 56.08471 11.94723 18143 ft 409 kts 324°
2026-05-03 20:20 56.10931 11.92207 18601 ft 412 kts 324°
2026-05-03 20:20 56.13444 11.89642 19060 ft 415 kts 324°
2026-05-03 20:20 56.15969 11.87067 19514 ft 419 kts 324°
2026-05-03 20:21 56.18508 11.84477 19992 ft 422 kts 324°
2026-05-03 20:21 56.21070 11.81862 20476 ft 425 kts 324°
2026-05-03 20:21 56.23648 11.79227 20952 ft 428 kts 324°
2026-05-03 20:21 56.26248 11.76565 21427 ft 431 kts 324°
2026-05-03 20:22 56.28864 11.73885 21909 ft 434 kts 324°
2026-05-03 20:22 56.31494 11.71184 22373 ft 437 kts 324°
2026-05-03 20:22 56.34075 11.68306 22854 ft 437 kts 320°
2026-05-03 20:22 56.36595 11.65188 23311 ft 440 kts 319°
2026-05-03 20:23 56.39083 11.61957 23693 ft 442 kts 318°
2026-05-03 20:23 56.41571 11.58667 24086 ft 445 kts 317°
2026-05-03 20:23 56.44075 11.55351 24482 ft 448 kts 318°
2026-05-03 20:23 56.46602 11.52018 24835 ft 451 kts 318°
2026-05-03 20:24 56.49152 11.48674 25208 ft 454 kts 318°
2026-05-03 20:24 56.51721 11.45319 25607 ft 457 kts 318°
2026-05-03 20:24 56.54303 11.41952 25985 ft 459 kts 318°
2026-05-03 20:24 56.56904 11.38561 26355 ft 462 kts 317°
2026-05-03 20:25 56.59516 11.35150 26738 ft 464 kts 317°
2026-05-03 20:25 56.62144 11.31713 27141 ft 466 kts 317°
2026-05-03 20:25 56.64776 11.28262 27512 ft 469 kts 317°
2026-05-03 20:25 56.67428 11.24776 27859 ft 471 kts 317°
2026-05-03 20:26 56.70085 11.21276 28210 ft 474 kts 317°
2026-05-03 20:26 56.72763 11.17742 28561 ft 476 kts 316°
2026-05-03 20:26 56.75451 11.14189 28876 ft 479 kts 316°
2026-05-03 20:26 56.78152 11.10613 29229 ft 481 kts 316°
2026-05-03 20:27 56.80860 11.07022 29549 ft 483 kts 316°
2026-05-03 20:27 56.83581 11.03407 29858 ft 485 kts 316°
2026-05-03 20:27 56.86320 10.99763 30131 ft 487 kts 316°
2026-05-03 20:27 56.89064 10.96104 30408 ft 489 kts 316°
2026-05-03 20:28 56.91811 10.92439 30743 ft 489 kts 315°
2026-05-03 20:28 56.94553 10.88776 31084 ft 488 kts 315°
2026-05-03 20:28 56.97296 10.85099 31360 ft 489 kts 315°
2026-05-03 20:28 57.00000 10.81469 31715 ft 487 kts 315°
2026-05-03 20:29 57.02726 10.77802 32093 ft 485 kts 315°
2026-05-03 20:29 57.05476 10.74095 32456 ft 483 kts 315°
2026-05-03 20:29 57.08178 10.70442 32807 ft 482 kts 314°
2026-05-03 20:29 57.10837 10.66839 33105 ft 481 kts 314°
2026-05-03 20:30 57.13574 10.63116 33264 ft 483 kts 314°
2026-05-03 20:30 57.16238 10.59491 33558 ft 482 kts 314°
2026-05-03 20:30 57.18931 10.55825 33866 ft 480 kts 314°
2026-05-03 20:30 57.21615 10.52166 34122 ft 479 kts 314°
2026-05-03 20:31 57.24287 10.48521 34431 ft 476 kts 314°
2026-05-03 20:31 57.26943 10.44887 34670 ft 475 kts 314°
2026-05-03 20:31 57.29598 10.41243 34822 ft 475 kts 314°
2026-05-03 20:31 57.32251 10.37594 34985 ft 475 kts 314°
2026-05-03 20:32 57.34904 10.33940 35177 ft 475 kts 314°
2026-05-03 20:32 57.37555 10.30285 35368 ft 475 kts 314°
2026-05-03 20:32 57.40202 10.26631 35540 ft 474 kts 314°
2026-05-03 20:32 57.42844 10.22978 35717 ft 474 kts 315°
2026-05-03 20:33 57.45488 10.19315 35845 ft 475 kts 315°
2026-05-03 20:33 57.50809 10.11912 35864 ft 481 kts 315°
2026-05-03 20:34 57.56176 10.04421 35859 ft 481 kts 314°
2026-05-03 20:34 57.61522 9.96943 35859 ft 480 kts 314°
2026-05-03 20:35 57.66854 9.89451 35851 ft 480 kts 314°
2026-05-03 20:35 57.72183 9.81931 35850 ft 480 kts 314°
2026-05-03 20:36 57.77501 9.74399 35848 ft 480 kts 314°
2026-05-03 20:36 57.82829 9.66822 35858 ft 481 kts 314°
2026-05-03 20:37 57.88153 9.59226 35852 ft 480 kts 314°
2026-05-03 20:37 57.93466 9.51618 35842 ft 480 kts 314°
2026-05-03 20:38 57.98784 9.44022 35844 ft 480 kts 316°
2026-05-03 20:38 58.04094 9.36403 35839 ft 479 kts 314°
2026-05-03 20:39 58.09281 9.28542 35832 ft 478 kts 314°
2026-05-03 20:39 58.14432 9.20599 35839 ft 479 kts 314°
2026-05-03 20:40 58.19596 9.12623 35831 ft 479 kts 314°
2026-05-03 20:40 58.24762 9.04638 35833 ft 479 kts 314°
2026-05-03 20:41 58.29889 8.96691 35829 ft 479 kts 314°
2026-05-03 20:41 58.35045 8.88668 35828 ft 479 kts 314°
2026-05-03 20:42 58.39359 8.81930 35825 ft 479 kts 314°
2026-05-03 20:42 58.42213 8.77460 35828 ft 479 kts 314°
2026-05-03 20:43 58.47345 8.69396 35823 ft 479 kts 314°
2026-05-03 20:43 58.52487 8.61285 35836 ft 479 kts 314°
2026-05-03 20:44 58.57631 8.53142 35818 ft 480 kts 314°
2026-05-03 20:44 58.62764 8.44984 35839 ft 479 kts 314°
2026-05-03 20:45 58.67898 8.36790 35817 ft 479 kts 314°
2026-05-03 20:45 58.73021 8.28581 35820 ft 479 kts 314°
2026-05-03 20:46 58.78135 8.20351 35855 ft 479 kts 314°
2026-05-03 20:46 58.83182 8.12199 35824 ft 478 kts 314°
2026-05-03 20:47 58.88281 8.03933 35828 ft 478 kts 314°
2026-05-03 20:47 58.93372 7.95645 35831 ft 478 kts 314°